Es liegt ein Kommunikationsproblem . Gehen Sie direkt zur Website Meteoalarm : www.meteoalarm.eu und ├╝berpr├╝fen Sie die Wetterwarnungen..

Webcam Vorhersage DWD Regenradar Wetterlage NRW Blitze Wind GFS-Modell
webcam


Kleve -D├╝ffelward more information Kleve -D├╝ffelward


Goch more information Goch


Thunder radar more information blitzortung!


Weitere Templates dieser Seite und andere Webseiten:

Meteotemplate

Awekas - Template

weather34 - Template

Wetter aus Willich

Hubert Reyers' Wetter


te
World Weather Websites
 

METAR-Meldungen aus der Umgebung

   
EHDL - Nijmegen
Aktualisierung: 27-11-2022 15:25
Nieselregen, Bew├Âlkt  
Nieselregen, Bew├Âlkt  
   Wind: SO 14.8 km/h
Wind: SO 14.8 km/h
Temperatur: 7°C
Gef├╝hlt: 4°C
Taupunkt: 5°C
Luftfeuchte: 87%
Luftdruck: 1016 hPa
Bew├Âlkt: Bew├Âlkt
Sichtbarkeit: More than 10 km
Bew├Âlkung: Teilweise bew├Âlkt 3400 ft,
Stark bew├Âlkt 3900 ft,
Bew├Âlkt 4900 ft
EHDL 271425Z AUTO 14008KT 090V190 9999 DZ SCT034 BKN039 OVC049 07/05 Q1016 BLU
EHDL - Arnhem
Aktualisierung: 27-11-2022 15:25
Nieselregen, Bew├Âlkt  
Nieselregen, Bew├Âlkt  
   Wind: SO 14.8 km/h
Wind: SO 14.8 km/h
Temperatur: 7°C
Gef├╝hlt: 4°C
Taupunkt: 5°C
Luftfeuchte: 87%
Luftdruck: 1016 hPa
Bew├Âlkt: Bew├Âlkt
Sichtbarkeit: More than 10 km
Bew├Âlkung: Teilweise bew├Âlkt 3400 ft,
Stark bew├Âlkt 3900 ft,
Bew├Âlkt 4900 ft
EHDL 271425Z AUTO 14008KT 090V190 9999 DZ SCT034 BKN039 OVC049 07/05 Q1016 BLU
EHAM - Amsterdam
Aktualisierung: 27-11-2022 15:25
Leichter Nieselregen, Stark bew├Âlkt  
Leichter Nieselregen, Stark bew├Âlkt  
   Wind: S├╝den 18.5 km/h
Wind: S├╝den 18.5 km/h
Temperatur: 7°C
Gef├╝hlt: 4°C
Taupunkt: 6°C
Luftfeuchte: 93%
Luftdruck: 1015 hPa
Bew├Âlkt: Stark bew├Âlkt
Sichtbarkeit: 9 km
Bew├Âlkung: leicht bew├Âlkt 600 ft,
Teilweise bew├Âlkt 800 ft,
Stark bew├Âlkt 1100 ft
EHAM 271425Z 17010KT 9000 -DZ FEW006 SCT008 BKN011 07/06 Q1015 TEMPO 5000 BKN008
EHDL - Ede
Aktualisierung: 27-11-2022 15:25
Nieselregen, Bew├Âlkt  
Nieselregen, Bew├Âlkt  
   Wind: SO 14.8 km/h
Wind: SO 14.8 km/h
Temperatur: 7°C
Gef├╝hlt: 4°C
Taupunkt: 5°C
Luftfeuchte: 87%
Luftdruck: 1016 hPa
Bew├Âlkt: Bew├Âlkt
Sichtbarkeit: More than 10 km
Bew├Âlkung: Teilweise bew├Âlkt 3400 ft,
Stark bew├Âlkt 3900 ft,
Bew├Âlkt 4900 ft
EHDL 271425Z AUTO 14008KT 090V190 9999 DZ SCT034 BKN039 OVC049 07/05 Q1016 BLU
EHDL - Emmen
Aktualisierung: 27-11-2022 15:25
Nieselregen, Bew├Âlkt  
Nieselregen, Bew├Âlkt  
   Wind: SO 14.8 km/h
Wind: SO 14.8 km/h
Temperatur: 7°C
Gef├╝hlt: 4°C
Taupunkt: 5°C
Luftfeuchte: 87%
Luftdruck: 1016 hPa
Bew├Âlkt: Bew├Âlkt
Sichtbarkeit: More than 10 km
Bew├Âlkung: Teilweise bew├Âlkt 3400 ft,
Stark bew├Âlkt 3900 ft,
Bew├Âlkt 4900 ft
EHDL 271425Z AUTO 14008KT 090V190 9999 DZ SCT034 BKN039 OVC049 07/05 Q1016 BLU
EHAM - Den Haag
Aktualisierung: 27-11-2022 15:25
Leichter Nieselregen, Stark bew├Âlkt  
Leichter Nieselregen, Stark bew├Âlkt  
   Wind: S├╝den 18.5 km/h
Wind: S├╝den 18.5 km/h
Temperatur: 7°C
Gef├╝hlt: 4°C
Taupunkt: 6°C
Luftfeuchte: 93%
Luftdruck: 1015 hPa
Bew├Âlkt: Stark bew├Âlkt
Sichtbarkeit: 9 km
Bew├Âlkung: leicht bew├Âlkt 600 ft,
Teilweise bew├Âlkt 800 ft,
Stark bew├Âlkt 1100 ft
EHAM 271425Z 17010KT 9000 -DZ FEW006 SCT008 BKN011 07/06 Q1015 TEMPO 5000 BKN008
EHAM - Apeldoorn
Aktualisierung: 27-11-2022 15:25
Leichter Nieselregen, Stark bew├Âlkt  
Leichter Nieselregen, Stark bew├Âlkt  
   Wind: S├╝den 18.5 km/h
Wind: S├╝den 18.5 km/h
Temperatur: 7°C
Gef├╝hlt: 4°C
Taupunkt: 6°C
Luftfeuchte: 93%
Luftdruck: 1015 hPa
Bew├Âlkt: Stark bew├Âlkt
Sichtbarkeit: 9 km
Bew├Âlkung: leicht bew├Âlkt 600 ft,
Teilweise bew├Âlkt 800 ft,
Stark bew├Âlkt 1100 ft
EHAM 271425Z 17010KT 9000 -DZ FEW006 SCT008 BKN011 07/06 Q1015 TEMPO 5000 BKN008
EHAM - Leeuwarden
Aktualisierung: 27-11-2022 15:25
Leichter Nieselregen, Stark bew├Âlkt  
Leichter Nieselregen, Stark bew├Âlkt  
   Wind: S├╝den 18.5 km/h
Wind: S├╝den 18.5 km/h
Temperatur: 7°C
Gef├╝hlt: 4°C
Taupunkt: 6°C
Luftfeuchte: 93%
Luftdruck: 1015 hPa
Bew├Âlkt: Stark bew├Âlkt
Sichtbarkeit: 9 km
Bew├Âlkung: leicht bew├Âlkt 600 ft,
Teilweise bew├Âlkt 800 ft,
Stark bew├Âlkt 1100 ft
EHAM 271425Z 17010KT 9000 -DZ FEW006 SCT008 BKN011 07/06 Q1015 TEMPO 5000 BKN008
TNCC - Willemstad
Aktualisierung: 27-11-2022 15:00
Light Showers, Regen, Stark bew├Âlkt  
Light Showers, Regen, Stark bew├Âlkt  
   Wind: ONO 24.1 km/h
Wind: ONO 24.1 km/h
Temperatur: 27°C
Hitzeindex: 29°C
Taupunkt: 23°C
Luftfeuchte: 79%
Luftdruck: 1014 hPa
Bew├Âlkt: Stark bew├Âlkt
Sichtbarkeit: More than 10 km
Bew├Âlkung: Stark bew├Âlkt 2900 ft
TNCC 271400Z AUTO 07013KT 9999 -SHRA BKN029 27/23 Q1014 NOSIG
EHEH - Eindhoven
Aktualisierung: 27-11-2022 15:25
Leichter Niederschlag m├Âglich, Bew├Âlkt  
Leichter Niederschlag m├Âglich, Bew├Âlkt  
   Wind: SO 11.1 km/h
Wind: SO 11.1 km/h
Temperatur: 7°C
Gef├╝hlt: 5°C
Taupunkt: 6°C
Luftfeuchte: 93%
Luftdruck: 1016 hPa
Bew├Âlkt: Bew├Âlkt
Sichtbarkeit: More than 10 km
Bew├Âlkung: leicht bew├Âlkt 2800 ft,
Bew├Âlkt 3300 ft
EHEH 271425Z AUTO 13006KT 080V190 9999 -RA FEW028 OVC033 07/06 Q1016 RERA REDZ BLU NOSIG
EHAM - Middelburg
Aktualisierung: 27-11-2022 15:25
Leichter Nieselregen, Stark bew├Âlkt  
Leichter Nieselregen, Stark bew├Âlkt  
   Wind: S├╝den 18.5 km/h
Wind: S├╝den 18.5 km/h
Temperatur: 7°C
Gef├╝hlt: 4°C
Taupunkt: 6°C
Luftfeuchte: 93%
Luftdruck: 1015 hPa
Bew├Âlkt: Stark bew├Âlkt
Sichtbarkeit: 9 km
Bew├Âlkung: leicht bew├Âlkt 600 ft,
Teilweise bew├Âlkt 800 ft,
Stark bew├Âlkt 1100 ft
EHAM 271425Z 17010KT 9000 -DZ FEW006 SCT008 BKN011 07/06 Q1015 TEMPO 5000 BKN008
EHAM - Delfzijl
Aktualisierung: 27-11-2022 15:25
Leichter Nieselregen, Stark bew├Âlkt  
Leichter Nieselregen, Stark bew├Âlkt  
   Wind: S├╝den 18.5 km/h
Wind: S├╝den 18.5 km/h
Temperatur: 7°C
Gef├╝hlt: 4°C
Taupunkt: 6°C
Luftfeuchte: 93%
Luftdruck: 1015 hPa
Bew├Âlkt: Stark bew├Âlkt
Sichtbarkeit: 9 km
Bew├Âlkung: leicht bew├Âlkt 600 ft,
Teilweise bew├Âlkt 800 ft,
Stark bew├Âlkt 1100 ft
EHAM 271425Z 17010KT 9000 -DZ FEW006 SCT008 BKN011 07/06 Q1015 TEMPO 5000 BKN008

Script entwickelt von  Saratoga-weather.org Angepasst f├╝r das Template von  Weerstation Leuven

Sie finden Wetter-Infos dieser Station auch auf:

UK Metoffice

European Weather Network

WeatherCloud

Weather Underground

AWEKAS

Neuwetter

Wettersektor

Von uns verwendete Ausr├╝stung:

Wetterstation
Davis VP2

Wetterprogramm
Meteobridge

WetterComputer
Computer

Anbieter
My provider

Davis VP2

Meteobridge

Computer

My provider